Location: Bettgenhausen
(50.6463°N, 7.5681°E)
Time: 15:40:05
(UTC+00:00)

Cosmos 2150 Rocket - Pass Details

Date: 27 February 2020
Orbit: 748 x 808 km, 74.0° (Epoch: 27 March)

Event Time Altitude Azimuth Distance (km) Brightness Sun altitude
Rises 19:18:35 0° 335° (NNW) 3,302 7.8 -21.6°
Reaches altitude 10° 19:20:59 10° 336° (NNW) 2,377 7.0 -21.9°
Maximum altitude 19:26:25 90° 68° (ENE) 810 4.0 -22.8°
Enters shadow 19:28:23 41° 157° (SSE) 1,147 4.6 -23.1°
